contact:dominique.lefevre@mio.osupytheas.fr, maurice.libes@osupytheas.fr, didier.mallarino@osupytheas.fr
Project:EMSO http://www.emso-fr.org/EMSO-France
Depth: 2436.0 m
Title:EMSO Ligure Ouest : Data MII capteur AQUADOPP
Date,Latitude,Longitude,X_East,Y_North,Z_Up,Amplitude_X,Amplitude_Y,Amplitude_Z,Batterie,SoundSpeed,Heading,Pitch,Roll,Pressure,TIS,Speed,Direction
, degrees North, degrees East, m.s-1, m.s-1,m.s-1, 1, 1, 1, Volt, m.s-1, degree, degree, degree, dbar, degree_C, m.s-1, degree
2022-01-23T00:01:03,42.805,6.029,-0.021,0.01,-0.018,105.0,105.0,103.0,13.4,1505.2,326.7,-0.8,1.8,2470.36,13.29,0.023,295.5
2022-01-23T00:04:03,42.805,6.029,-0.034,0.025,-0.008,105.0,105.0,103.0,13.4,1505.2,325.4,-0.8,1.8,2470.306,13.29,0.042,306.3
2022-01-23T00:07:03,42.805,6.029,-0.033,0.029,0.003,106.0,106.0,103.0,13.3,1505.2,328.8,-0.8,1.8,2470.319,13.29,0.043,311.3
2022-01-23T00:10:03,42.805,6.029,-0.028,0.0,0.01,106.0,105.0,104.0,13.4,1505.2,324.1,-0.7,1.8,2470.284,13.29,0.028,270.0
2022-01-23T00:13:03,42.805,6.029,-0.025,0.014,-0.005,106.0,105.0,103.0,13.4,1505.2,328.0,-0.8,1.8,2470.233,13.29,0.028,299.3
2022-01-23T00:16:03,42.805,6.029,-0.039,0.001,0.026,105.0,106.0,103.0,13.4,1505.2,328.1,-0.7,1.8,2470.292,13.29,0.039,271.5
2022-01-23T00:19:03,42.805,6.029,-0.03,0.005,-0.014,106.0,106.0,103.0,13.4,1505.2,329.6,-0.7,1.8,2470.287,13.29,0.03,279.5
2022-01-23T00:22:03,42.805,6.029,-0.039,0.009,-0.023,106.0,106.0,103.0,13.4,1505.2,328.7,-0.8,1.8,2470.314,13.29,0.04,283.0
2022-01-23T00:25:03,42.805,6.029,-0.047,0.013,-0.029,106.0,104.0,105.0,13.4,1505.2,330.1,-0.8,1.8,2470.301,13.29,0.048,285.5
2022-01-23T00:28:03,42.805,6.029,-0.048,0.008,0.013,106.0,105.0,103.0,13.3,1505.2,326.2,-0.8,1.8,2470.261,13.29,0.048,279.5
2022-01-23T00:31:03,42.805,6.029,-0.026,0.012,-0.015,106.0,106.0,104.0,13.3,1505.2,329.7,-0.7,1.8,2470.248,13.29,0.028,294.8
2022-01-23T00:34:03,42.805,6.029,-0.035,0.019,0.011,107.0,106.0,104.0,13.4,1505.2,325.3,-0.7,1.8,2470.246,13.29,0.039,298.5
2022-01-23T00:37:03,42.805,6.029,-0.011,0.0,-0.004,106.0,105.0,104.0,13.4,1505.2,329.0,-0.7,1.8,2470.197,13.29,0.011,270.0
2022-01-23T00:40:03,42.805,6.029,-0.022,0.009,-0.012,106.0,106.0,104.0,13.3,1505.2,329.1,-0.7,1.9,2470.241,13.29,0.023,292.2
2022-01-23T00:43:03,42.805,6.029,-0.03,0.002,0.005,105.0,107.0,105.0,13.4,1505.2,327.1,-0.7,1.8,2470.186,13.29,0.03,273.8
2022-01-23T00:46:03,42.805,6.029,-0.033,0.017,-0.003,106.0,105.0,103.0,13.4,1505.2,331.4,-0.8,1.8,2470.187,13.29,0.037,297.3
2022-01-23T00:49:03,42.805,6.029,-0.032,0.005,-0.012,107.0,106.0,103.0,13.3,1505.2,328.0,-0.7,1.9,2470.191,13.29,0.032,278.9
2022-01-23T00:52:03,42.805,6.029,-0.026,-0.001,0.0,106.0,105.0,104.0,13.4,1505.2,327.5,-0.7,1.8,2470.149,13.29,0.026,267.8
2022-01-23T00:55:03,42.805,6.029,-0.022,0.017,0.006,106.0,106.0,104.0,13.4,1505.2,331.6,-0.8,1.8,2470.15,13.29,0.027,307.7
2022-01-23T00:58:03,42.805,6.029,-0.028,0.014,0.005,107.0,106.0,104.0,13.3,1505.2,327.6,-0.8,1.8,2470.11,13.29,0.031,296.6
2022-01-23T01:04:03,42.805,6.029,-0.034,0.023,0.005,108.0,108.0,104.0,13.4,1505.2,329.4,-0.8,1.8,2470.157,13.28,0.041,304.1
2022-01-23T01:07:03,42.805,6.029,-0.028,0.025,0.017,108.0,105.0,104.0,13.4,1505.2,331.0,-0.8,1.8,2470.168,13.28,0.037,311.8
2022-01-23T01:10:03,42.805,6.029,-0.029,-0.002,-0.027,107.0,107.0,105.0,13.4,1505.2,331.9,-0.8,1.8,2470.112,13.28,0.029,266.1
2022-01-23T01:13:03,42.805,6.029,-0.028,0.006,-0.008,105.0,107.0,105.0,13.4,1505.2,330.4,-0.8,1.8,2470.14,13.28,0.028,282.1
2022-01-23T01:16:03,42.805,6.029,-0.026,0.002,0.004,106.0,107.0,105.0,13.4,1505.2,325.3,-0.7,1.8,2470.167,13.29,0.026,274.4
2022-01-23T01:19:03,42.805,6.029,-0.04,0.0,0.0,108.0,107.0,104.0,13.4,1505.2,328.1,-0.8,1.8,2470.108,13.29,0.04,270.0
2022-01-23T01:22:03,42.805,6.029,-0.032,0.014,-0.01,108.0,108.0,104.0,13.4,1505.2,327.5,-0.7,1.9,2470.108,13.29,0.034,293.6
2022-01-23T01:25:03,42.805,6.029,-0.035,-0.023,-0.018,108.0,106.0,104.0,13.3,1505.2,324.3,-0.7,1.8,2470.105,13.29,0.041,236.7
2022-01-23T01:28:02,42.805,6.029,-0.035,0.016,0.006,107.0,107.0,105.0,13.4,1505.2,331.6,-0.8,1.9,2470.109,13.29,0.038,294.6
2022-01-23T01:31:03,42.805,6.029,-0.015,0.011,-0.017,108.0,107.0,104.0,13.4,1505.2,328.4,-0.8,1.8,2470.133,13.29,0.018,306.3
2022-01-23T01:34:02,42.805,6.029,-0.032,0.016,0.011,108.0,108.0,104.0,13.4,1505.2,327.1,-0.8,1.8,2470.154,13.29,0.035,296.6
2022-01-23T01:37:02,42.805,6.029,-0.044,0.009,0.002,108.0,106.0,105.0,13.4,1505.2,325.2,-0.8,1.8,2470.134,13.29,0.044,281.6
2022-01-23T01:40:02,42.805,6.029,-0.033,-0.006,0.016,108.0,106.0,104.0,13.4,1505.2,325.9,-0.7,1.8,2470.163,13.29,0.033,259.7
2022-01-23T01:43:03,42.805,6.029,-0.034,0.012,-0.007,108.0,107.0,105.0,13.4,1505.2,328.2,-0.7,1.8,2470.167,13.29,0.036,289.4
2022-01-23T01:46:02,42.805,6.029,-0.031,0.01,-0.001,106.0,106.0,104.0,13.3,1505.2,329.0,-0.8,1.8,2470.191,13.29,0.032,287.9
2022-01-23T01:49:03,42.805,6.029,-0.042,0.015,-0.03,107.0,107.0,104.0,13.3,1505.2,329.7,-0.8,1.8,2470.175,13.29,0.044,289.6
2022-01-23T01:52:02,42.805,6.029,-0.026,0.008,-0.019,107.0,107.0,105.0,13.3,1505.2,324.7,-0.7,1.8,2470.182,13.29,0.027,287.1
2022-01-23T01:55:02,42.805,6.029,-0.045,0.006,0.012,108.0,109.0,105.0,13.4,1505.2,328.9,-0.7,1.8,2470.143,13.29,0.045,277.6
2022-01-23T01:58:02,42.805,6.029,-0.031,0.015,-0.022,107.0,107.0,105.0,13.4,1505.2,329.4,-0.8,1.8,2470.166,13.29,0.034,295.8
2022-01-23T02:04:02,42.805,6.029,-0.006,0.023,-0.022,108.0,107.0,106.0,13.4,1505.2,326.4,-0.8,1.8,2470.174,13.28,0.023,345.4
2022-01-23T02:07:03,42.805,6.029,-0.026,-0.002,-0.027,107.0,108.0,105.0,13.3,1505.2,329.9,-0.8,1.8,2470.196,13.28,0.026,265.6
2022-01-23T02:10:02,42.805,6.029,-0.024,-0.011,0.01,108.0,107.0,105.0,13.3,1505.2,327.8,-0.8,1.8,2470.142,13.28,0.026,245.4
2022-01-23T02:13:02,42.805,6.029,-0.022,0.008,-0.013,108.0,107.0,104.0,13.4,1505.2,326.8,-0.8,1.8,2470.159,13.29,0.023,290.0
2022-01-23T02:16:02,42.805,6.029,-0.031,0.003,0.001,107.0,107.0,104.0,13.4,1505.2,327.1,-0.8,1.8,2470.178,13.29,0.031,275.5
2022-01-23T02:19:03,42.805,6.029,-0.035,0.014,0.001,107.0,106.0,104.0,13.4,1505.2,328.9,-0.8,1.8,2470.173,13.29,0.037,291.8
2022-01-23T02:22:02,42.805,6.029,-0.028,-0.002,-0.019,107.0,108.0,105.0,13.4,1505.2,324.5,-0.8,1.8,2470.182,13.29,0.028,265.9
2022-01-23T02:25:02,42.805,6.029,-0.048,0.013,-0.015,108.0,108.0,105.0,13.4,1505.2,330.7,-0.7,1.8,2470.167,13.29,0.049,285.2
2022-01-23T02:28:02,42.805,6.029,-0.01,0.0,0.022,108.0,107.0,104.0,13.4,1505.2,328.8,-0.7,1.8,2470.19,13.29,0.01,270.0
2022-01-23T02:31:03,42.805,6.029,-0.038,0.003,-0.01,108.0,108.0,104.0,13.3,1505.2,327.1,-0.8,1.8,2470.192,13.29,0.038,274.5
2022-01-23T02:34:03,42.805,6.029,-0.027,0.012,-0.006,108.0,106.0,104.0,13.4,1505.2,325.6,-0.7,1.8,2470.158,13.29,0.029,294.0
2022-01-23T02:37:02,42.805,6.029,-0.03,0.016,0.016,107.0,107.0,105.0,13.3,1505.2,329.6,-0.7,1.8,2470.242,13.29,0.034,298.1
2022-01-23T02:40:02,42.805,6.029,-0.03,-0.007,-0.002,107.0,106.0,104.0,13.3,1505.2,331.6,-0.7,1.8,2470.21,13.29,0.03,256.9
2022-01-23T02:43:02,42.805,6.029,-0.037,0.007,-0.035,108.0,107.0,103.0,13.4,1505.2,330.3,-0.7,1.8,2470.222,13.29,0.037,280.7
2022-01-23T02:46:03,42.805,6.029,-0.015,0.001,0.008,108.0,105.0,104.0,13.4,1505.2,329.2,-0.8,1.8,2470.183,13.29,0.015,273.8
2022-01-23T02:49:02,42.805,6.029,-0.034,0.001,-0.02,107.0,107.0,104.0,13.4,1505.2,330.1,-0.8,1.8,2470.179,13.29,0.034,271.7
2022-01-23T02:52:02,42.805,6.029,-0.03,0.0,0.019,108.0,107.0,105.0,13.4,1505.2,326.3,-0.7,1.8,2470.212,13.29,0.03,270.0
2022-01-23T02:55:03,42.805,6.029,-0.032,0.01,-0.009,107.0,106.0,104.0,13.4,1505.2,325.3,-0.7,1.8,2470.234,13.29,0.033,287.4
2022-01-23T02:58:03,42.805,6.029,-0.037,-0.007,0.003,107.0,106.0,104.0,13.4,1505.2,323.4,-0.8,1.8,2470.212,13.29,0.037,259.3
2022-01-23T03:04:02,42.805,6.029,-0.032,0.007,-0.011,108.0,106.0,104.0,13.3,1505.2,327.2,-0.7,1.8,2470.253,13.28,0.032,282.3
2022-01-23T03:07:02,42.805,6.029,-0.03,-0.009,0.004,108.0,108.0,104.0,13.4,1505.2,325.7,-0.8,1.8,2470.186,13.29,0.031,253.3
2022-01-23T03:10:03,42.805,6.029,-0.01,0.0,0.013,107.0,106.0,104.0,13.4,1505.2,328.8,-0.8,1.8,2470.252,13.29,0.01,270.0
2022-01-23T03:13:03,42.805,6.029,-0.024,-0.015,-0.028,106.0,107.0,104.0,13.3,1505.2,329.0,-0.7,1.8,2470.197,13.29,0.028,238.0
2022-01-23T03:16:02,42.805,6.029,-0.036,-0.012,-0.014,108.0,107.0,103.0,13.3,1505.2,325.2,-0.8,1.8,2470.213,13.29,0.037,251.6
2022-01-23T03:19:03,42.805,6.029,-0.024,-0.003,0.014,108.0,106.0,104.0,13.4,1505.2,324.1,-0.8,1.8,2470.204,13.29,0.024,262.9
2022-01-23T03:22:02,42.805,6.029,-0.032,0.0,-0.009,108.0,106.0,104.0,13.4,1505.2,324.8,-0.7,1.8,2470.21,13.29,0.032,270.0
2022-01-23T03:25:03,42.805,6.029,-0.033,0.003,0.0,108.0,108.0,105.0,13.4,1505.2,327.0,-0.8,1.8,2470.203,13.29,0.033,275.2
2022-01-23T03:28:03,42.805,6.029,-0.009,-0.015,-0.023,108.0,107.0,103.0,13.4,1505.2,324.2,-0.7,1.8,2470.22,13.29,0.017,211.0
2022-01-23T03:31:03,42.805,6.029,-0.025,-0.01,0.0,108.0,106.0,105.0,13.3,1505.2,328.7,-0.8,1.8,2470.241,13.29,0.026,248.2
2022-01-23T03:34:03,42.805,6.029,-0.021,-0.02,0.018,107.0,109.0,104.0,13.4,1505.2,327.5,-0.8,1.8,2470.224,13.29,0.028,226.4
2022-01-23T03:37:02,42.805,6.029,-0.011,-0.007,-0.002,107.0,107.0,106.0,13.4,1505.2,329.3,-0.8,1.8,2470.204,13.29,0.013,237.5
2022-01-23T03:40:03,42.805,6.029,-0.052,0.005,0.012,107.0,107.0,105.0,13.3,1505.2,329.9,-0.7,1.8,2470.192,13.29,0.052,275.5
2022-01-23T03:43:03,42.805,6.029,-0.024,-0.002,-0.003,109.0,107.0,105.0,13.3,1505.2,328.2,-0.8,1.8,2470.207,13.29,0.024,265.2
2022-01-23T03:46:03,42.805,6.029,-0.036,-0.009,-0.015,108.0,106.0,105.0,13.3,1505.2,329.6,-0.8,1.8,2470.219,13.29,0.037,256.0
2022-01-23T03:49:03,42.805,6.029,-0.023,-0.005,0.013,108.0,107.0,105.0,13.3,1505.2,329.0,-0.8,1.8,2470.215,13.29,0.023,257.7
2022-01-23T03:52:02,42.805,6.029,-0.012,-0.008,-0.01,107.0,107.0,104.0,13.4,1505.2,329.0,-0.8,1.8,2470.259,13.29,0.014,236.3
2022-01-23T03:55:03,42.805,6.029,-0.01,-0.018,0.012,107.0,107.0,104.0,13.4,1505.2,324.2,-0.7,1.9,2470.183,13.29,0.02,209.1
2022-01-23T03:58:03,42.805,6.029,-0.047,0.004,-0.005,107.0,106.0,104.0,13.3,1505.2,327.1,-0.8,1.8,2470.192,13.29,0.047,274.9
2022-01-23T04:04:02,42.805,6.029,-0.016,-0.013,-0.002,108.0,106.0,105.0,13.4,1505.2,323.7,-0.8,1.8,2470.207,13.28,0.02,230.9
2022-01-23T04:07:02,42.805,6.029,-0.026,-0.01,0.008,107.0,107.0,105.0,13.3,1505.2,324.9,-0.7,1.8,2470.236,13.28,0.027,249.0
2022-01-23T04:10:03,42.805,6.029,-0.022,-0.006,-0.028,108.0,108.0,104.0,13.4,1505.2,329.5,-0.7,1.8,2470.212,13.28,0.022,254.7
2022-01-23T04:13:03,42.805,6.029,-0.032,-0.007,0.014,108.0,106.0,105.0,13.4,1505.2,325.4,-0.7,1.8,2470.162,13.29,0.032,257.7
2022-01-23T04:16:03,42.805,6.029,-0.021,0.002,-0.003,108.0,106.0,105.0,13.4,1505.2,326.3,-0.7,1.8,2470.201,13.29,0.021,275.4
2022-01-23T04:19:03,42.805,6.029,-0.04,-0.011,-0.019,108.0,107.0,105.0,13.3,1505.2,327.7,-0.8,1.8,2470.198,13.29,0.041,254.6
2022-01-23T04:22:02,42.805,6.029,-0.017,0.013,0.001,107.0,107.0,106.0,13.3,1505.2,329.6,-0.7,1.8,2470.187,13.29,0.021,307.4
2022-01-23T04:25:03,42.805,6.029,-0.039,-0.016,-0.033,108.0,106.0,104.0,13.3,1505.2,329.2,-0.8,1.8,2470.195,13.29,0.042,247.7
2022-01-23T04:28:03,42.805,6.029,-0.015,-0.006,-0.013,107.0,107.0,105.0,13.4,1505.2,330.4,-0.7,1.8,2470.203,13.29,0.016,248.2
2022-01-23T04:31:03,42.805,6.029,-0.036,0.004,0.001,106.0,106.0,105.0,13.4,1505.2,329.8,-0.8,1.8,2470.187,13.29,0.036,276.3
2022-01-23T04:34:03,42.805,6.029,-0.035,-0.002,-0.001,107.0,107.0,104.0,13.3,1505.2,323.9,-0.7,1.9,2470.211,13.29,0.035,266.7
2022-01-23T04:37:02,42.805,6.029,-0.013,-0.003,-0.027,107.0,106.0,104.0,13.4,1505.2,330.5,-0.8,1.8,2470.176,13.29,0.013,257.0
2022-01-23T04:40:03,42.805,6.029,-0.033,0.006,-0.027,107.0,106.0,105.0,13.4,1505.2,328.8,-0.8,1.8,2470.166,13.29,0.033,280.3
2022-01-23T04:43:03,42.805,6.029,-0.015,0.009,-0.033,109.0,107.0,105.0,13.3,1505.2,326.0,-0.7,1.8,2470.16,13.29,0.017,301.0
2022-01-23T04:46:03,42.805,6.029,-0.007,0.009,-0.001,107.0,107.0,104.0,13.4,1505.2,328.6,-0.7,1.8,2470.153,13.29,0.011,322.1
2022-01-23T04:49:03,42.805,6.029,-0.036,-0.012,-0.021,106.0,106.0,105.0,13.4,1505.2,328.9,-0.8,1.9,2470.166,13.29,0.037,251.6
2022-01-23T04:52:02,42.805,6.029,-0.028,-0.009,-0.011,107.0,107.0,105.0,13.4,1505.2,324.9,-0.8,1.8,2470.188,13.29,0.029,252.2
2022-01-23T04:55:03,42.805,6.029,-0.031,-0.01,-0.035,107.0,106.0,103.0,13.4,1505.2,330.1,-0.7,1.8,2470.128,13.29,0.032,252.1
2022-01-23T04:58:03,42.805,6.029,-0.017,0.01,0.009,108.0,106.0,105.0,13.3,1505.2,323.7,-0.8,1.8,2470.111,13.29,0.019,300.5
2022-01-23T05:04:02,42.805,6.029,-0.021,-0.005,-0.005,108.0,107.0,104.0,13.3,1505.2,327.5,-0.8,1.8,2470.165,13.28,0.021,256.6
2022-01-23T05:07:02,42.805,6.029,-0.037,-0.021,-0.006,108.0,107.0,104.0,13.4,1505.2,326.9,-0.8,1.8,2470.178,13.28,0.042,240.4
2022-01-23T05:10:03,42.805,6.029,-0.022,-0.016,-0.025,108.0,107.0,104.0,13.4,1505.2,326.9,-0.7,1.8,2470.162,13.28,0.027,234.0
2022-01-23T05:13:03,42.805,6.029,-0.019,-0.025,0.001,108.0,107.0,105.0,13.3,1505.2,325.4,-0.7,1.8,2470.174,13.29,0.031,217.2
2022-01-23T05:16:03,42.805,6.029,-0.029,-0.009,-0.011,108.0,106.0,104.0,13.4,1505.2,327.1,-0.8,1.8,2470.235,13.29,0.03,252.8
2022-01-23T05:19:03,42.805,6.029,-0.04,-0.007,-0.017,107.0,107.0,104.0,13.4,1505.2,326.2,-0.7,1.8,2470.219,13.29,0.04,260.1
2022-01-23T05:22:02,42.805,6.029,-0.012,0.002,-0.016,106.0,107.0,104.0,13.4,1505.2,327.8,-0.8,1.8,2470.232,13.29,0.012,279.5
2022-01-23T05:25:03,42.805,6.029,-0.032,-0.022,-0.022,106.0,107.0,105.0,13.4,1505.2,328.5,-0.8,1.8,2470.251,13.29,0.038,235.5
2022-01-23T05:28:03,42.805,6.029,-0.03,-0.02,-0.021,107.0,105.0,104.0,13.3,1505.2,328.3,-0.8,1.8,2470.235,13.29,0.036,236.3
2022-01-23T05:31:03,42.805,6.029,-0.03,-0.019,-0.019,108.0,107.0,104.0,13.4,1505.2,329.8,-0.8,1.9,2470.208,13.29,0.035,237.7
2022-01-23T05:34:03,42.805,6.029,-0.012,0.011,-0.033,107.0,108.0,104.0,13.4,1505.2,328.0,-0.8,1.8,2470.211,13.29,0.016,312.5
2022-01-23T05:37:02,42.805,6.029,-0.039,-0.014,-0.01,108.0,107.0,104.0,13.4,1505.2,328.5,-0.8,1.8,2470.206,13.29,0.041,250.3
2022-01-23T05:40:03,42.805,6.029,-0.021,0.0,-0.013,107.0,107.0,104.0,13.4,1505.2,330.7,-0.8,1.8,2470.256,13.29,0.021,270.0
2022-01-23T05:43:03,42.805,6.029,-0.038,0.008,0.023,106.0,106.0,104.0,13.4,1505.2,326.8,-0.7,1.9,2470.238,13.29,0.038,281.9
2022-01-23T05:46:03,42.805,6.029,-0.017,-0.01,-0.01,106.0,106.0,105.0,13.4,1505.2,325.8,-0.7,1.8,2470.24,13.29,0.019,239.5
2022-01-23T05:49:03,42.805,6.029,-0.03,-0.017,-0.021,107.0,106.0,104.0,13.3,1505.2,324.0,-0.7,1.8,2470.217,13.29,0.034,240.5
2022-01-23T05:52:02,42.805,6.029,-0.029,-0.021,-0.012,107.0,107.0,104.0,13.3,1505.2,325.9,-0.8,1.9,2470.23,13.29,0.035,234.1
2022-01-23T05:55:03,42.805,6.029,-0.042,-0.001,-0.005,107.0,106.0,104.0,13.4,1505.2,327.5,-0.8,1.8,2470.169,13.29,0.042,268.6
2022-01-23T05:58:03,42.805,6.029,-0.037,-0.01,-0.008,108.0,105.0,104.0,13.4,1505.2,326.7,-0.7,1.8,2470.209,13.28,0.038,254.9
2022-01-23T06:04:03,42.805,6.029,-0.028,-0.023,0.02,107.0,106.0,103.0,13.4,1505.2,326.4,-0.7,1.8,2470.206,13.28,0.036,230.6
2022-01-23T06:07:02,42.805,6.029,-0.024,-0.011,-0.028,108.0,106.0,103.0,13.3,1505.2,323.5,-0.7,1.8,2470.114,13.28,0.026,245.4
2022-01-23T06:10:03,42.805,6.029,-0.025,-0.007,0.0,107.0,106.0,104.0,13.3,1505.2,329.2,-0.8,1.8,2470.109,13.28,0.025,254.4
2022-01-23T06:13:03,42.805,6.029,-0.023,-0.009,-0.007,107.0,107.0,105.0,13.4,1505.2,325.9,-0.8,1.8,2470.135,13.28,0.024,248.6
2022-01-23T06:16:03,42.805,6.029,-0.019,0.005,0.024,107.0,106.0,104.0,13.4,1505.2,326.7,-0.8,1.8,2470.125,13.28,0.019,284.7
2022-01-23T06:19:03,42.805,6.029,-0.023,-0.016,-0.041,107.0,106.0,103.0,13.4,1505.2,325.8,-0.8,1.8,2470.111,13.28,0.028,235.2
2022-01-23T06:22:02,42.805,6.029,-0.041,-0.011,-0.009,106.0,106.0,105.0,13.3,1505.2,327.1,-0.8,1.8,2470.116,13.28,0.042,255.0
2022-01-23T06:25:03,42.805,6.029,-0.036,-0.006,0.0,108.0,105.0,104.0,13.3,1505.2,329.0,-0.8,1.8,2470.115,13.28,0.036,260.5
2022-01-23T06:28:03,42.805,6.029,-0.03,-0.014,-0.009,107.0,107.0,104.0,13.4,1505.2,326.8,-0.7,1.8,2470.119,13.28,0.033,245.0
2022-01-23T06:31:03,42.805,6.029,-0.025,-0.016,0.014,106.0,106.0,104.0,13.4,1505.2,328.4,-0.7,1.8,2470.13,13.28,0.029,237.4
2022-01-23T06:34:03,42.805,6.029,-0.023,-0.017,-0.024,106.0,106.0,104.0,13.3,1505.2,327.8,-0.8,1.8,2470.153,13.28,0.028,233.5
2022-01-23T06:37:02,42.805,6.029,-0.02,-0.024,0.008,107.0,106.0,104.0,13.3,1505.2,326.7,-0.8,1.8,2470.116,13.28,0.031,219.8
2022-01-23T06:40:03,42.805,6.029,-0.047,-0.029,-0.011,106.0,106.0,104.0,13.4,1505.2,327.3,-0.7,1.8,2470.15,13.28,0.055,238.3
2022-01-23T06:43:03,42.805,6.029,-0.022,-0.012,-0.007,108.0,106.0,105.0,13.4,1505.2,328.8,-0.8,1.8,2470.171,13.28,0.025,241.4
2022-01-23T06:46:03,42.805,6.029,-0.056,-0.009,-0.012,106.0,106.0,104.0,13.3,1505.2,327.2,-0.8,1.8,2470.127,13.28,0.056,260.9
2022-01-23T06:49:03,42.805,6.029,-0.034,-0.01,-0.023,108.0,107.0,104.0,13.4,1505.2,331.2,-0.8,1.8,2470.166,13.28,0.035,253.6
2022-01-23T06:52:02,42.805,6.029,-0.023,-0.015,0.004,107.0,106.0,105.0,13.4,1505.2,326.6,-0.7,1.8,2470.183,13.28,0.027,236.9
2022-01-23T06:55:03,42.805,6.029,-0.035,-0.022,-0.012,107.0,107.0,105.0,13.3,1505.2,324.6,-0.7,1.8,2470.196,13.28,0.041,237.8
2022-01-23T06:58:03,42.805,6.029,-0.038,-0.035,-0.032,107.0,107.0,104.0,13.4,1505.2,326.4,-0.7,1.8,2470.242,13.28,0.051,227.4
2022-01-23T07:04:02,42.805,6.029,-0.028,-0.031,0.008,107.0,107.0,104.0,13.3,1505.2,323.5,-0.8,1.8,2470.314,13.28,0.041,222.1
2022-01-23T07:07:02,42.805,6.029,-0.05,-0.019,0.011,108.0,106.0,104.0,13.4,1505.2,325.3,-0.8,1.8,2470.327,13.28,0.053,249.2
2022-01-23T07:10:03,42.805,6.029,-0.022,-0.03,0.014,107.0,105.0,104.0,13.4,1505.2,325.7,-0.7,1.8,2470.358,13.28,0.037,216.3
2022-01-23T07:13:03,42.805,6.029,-0.046,-0.018,0.001,108.0,107.0,104.0,13.3,1505.2,325.4,-0.7,1.8,2470.413,13.28,0.049,248.6
2022-01-23T07:16:03,42.805,6.029,-0.044,-0.014,-0.013,107.0,106.0,104.0,13.4,1505.2,329.7,-0.8,1.8,2470.434,13.28,0.046,252.4
2022-01-23T07:19:03,42.805,6.029,-0.023,-0.032,-0.004,108.0,107.0,104.0,13.4,1505.2,326.4,-0.8,1.8,2470.481,13.28,0.039,215.7
2022-01-23T07:22:02,42.805,6.029,-0.032,-0.043,-0.004,107.0,107.0,104.0,13.3,1505.2,328.0,-0.8,1.8,2470.543,13.28,0.053,216.7
2022-01-23T07:25:03,42.805,6.029,-0.033,-0.03,-0.006,108.0,107.0,105.0,13.3,1505.2,326.7,-0.8,1.8,2470.537,13.28,0.044,227.7
2022-01-23T07:28:03,42.805,6.029,-0.018,-0.018,-0.017,108.0,106.0,105.0,13.4,1505.2,326.8,-0.8,1.8,2470.576,13.28,0.025,225.0
2022-01-23T07:31:03,42.805,6.029,-0.043,-0.011,-0.003,108.0,107.0,106.0,13.4,1505.2,328.5,-0.7,1.8,2470.64,13.28,0.044,255.7
2022-01-23T07:34:03,42.805,6.029,-0.032,-0.024,-0.009,107.0,107.0,104.0,13.4,1505.2,330.4,-0.8,1.8,2470.578,13.28,0.04,233.1
2022-01-23T07:37:02,42.805,6.029,-0.035,-0.015,-0.019,109.0,105.0,106.0,13.4,1505.2,327.9,-0.8,1.8,2470.668,13.28,0.038,246.8
2022-01-23T07:40:03,42.805,6.029,-0.038,-0.015,-0.014,107.0,106.0,104.0,13.3,1505.2,325.8,-0.8,1.8,2470.727,13.28,0.04,248.5
2022-01-23T07:43:03,42.805,6.029,-0.04,-0.011,0.004,107.0,105.0,105.0,13.3,1505.2,330.2,-0.7,1.8,2470.741,13.28,0.041,254.6
2022-01-23T07:46:03,42.805,6.029,-0.022,-0.019,-0.041,108.0,107.0,104.0,13.4,1505.2,326.2,-0.8,1.8,2470.751,13.28,0.029,229.2
2022-01-23T07:49:03,42.805,6.029,-0.038,-0.046,-0.019,107.0,106.0,104.0,13.4,1505.2,324.5,-0.7,1.8,2470.752,13.28,0.059,219.6
2022-01-23T07:52:02,42.805,6.029,-0.021,-0.015,-0.027,108.0,107.0,104.0,13.4,1505.2,326.7,-0.7,1.8,2470.779,13.28,0.025,234.5
2022-01-23T07:55:03,42.805,6.029,-0.039,-0.032,-0.018,107.0,106.0,104.0,13.4,1505.2,326.6,-0.7,1.8,2470.805,13.28,0.05,230.6
2022-01-23T07:58:03,42.805,6.029,-0.052,-0.01,-0.003,108.0,106.0,104.0,13.4,1505.2,327.9,-0.8,1.8,2470.811,13.28,0.052,259.1
2022-01-23T08:01:03,42.805,6.029,-0.048,-0.014,-0.013,107.0,106.0,104.0,13.4,1505.2,330.2,-0.8,1.8,2470.894,13.28,0.05,253.7
2022-01-23T08:04:02,42.805,6.029,-0.04,-0.011,-0.017,107.0,106.0,103.0,13.3,1505.2,331.4,-0.8,1.8,2470.918,13.28,0.041,254.6
2022-01-23T08:07:02,42.805,6.029,-0.045,-0.01,-0.001,107.0,106.0,105.0,13.4,1505.2,326.3,-0.7,1.8,2470.898,13.28,0.046,257.5
2022-01-23T08:10:03,42.805,6.029,-0.042,-0.009,0.003,107.0,107.0,104.0,13.3,1505.2,328.3,-0.8,1.8,2470.887,13.28,0.042,257.9
2022-01-23T08:13:03,42.805,6.029,-0.025,-0.012,0.011,107.0,107.0,105.0,13.4,1505.2,327.9,-0.8,1.8,2470.935,13.28,0.027,244.4
2022-01-23T08:16:03,42.805,6.029,-0.05,-0.031,-0.014,107.0,106.0,104.0,13.3,1505.2,326.9,-0.7,1.8,2470.968,13.28,0.058,238.2
2022-01-23T08:19:03,42.805,6.029,-0.03,-0.003,-0.029,107.0,106.0,104.0,13.3,1505.2,329.7,-0.7,1.8,2470.959,13.28,0.03,264.3
2022-01-23T08:22:02,42.805,6.029,-0.04,-0.015,0.008,106.0,106.0,105.0,13.3,1505.2,327.5,-0.7,1.8,2470.955,13.28,0.042,249.4
2022-01-23T08:25:03,42.805,6.029,-0.02,0.006,0.017,108.0,106.0,104.0,13.3,1505.2,329.0,-0.8,1.8,2471.003,13.28,0.02,286.7
2022-01-23T08:28:03,42.805,6.029,-0.02,-0.025,-0.017,106.0,106.0,104.0,13.4,1505.2,325.9,-0.7,1.8,2471.027,13.28,0.032,218.7
2022-01-23T08:31:03,42.805,6.029,-0.033,-0.002,-0.002,107.0,106.0,105.0,13.4,1505.2,325.3,-0.8,1.8,2470.984,13.28,0.033,266.5
2022-01-23T08:34:03,42.805,6.029,-0.026,-0.005,-0.037,107.0,107.0,105.0,13.3,1505.2,326.3,-0.8,1.9,2470.987,13.28,0.026,259.1
2022-01-23T08:37:02,42.805,6.029,-0.052,-0.018,-0.053,107.0,106.0,105.0,13.4,1505.2,330.7,-0.8,1.8,2471.028,13.28,0.055,250.9
2022-01-23T08:40:03,42.805,6.029,-0.03,0.005,-0.008,108.0,106.0,104.0,13.3,1505.2,331.9,-0.7,1.8,2470.986,13.28,0.03,279.5
2022-01-23T08:43:03,42.805,6.029,-0.028,-0.008,0.009,107.0,106.0,105.0,13.4,1505.2,329.9,-0.8,1.8,2471.047,13.28,0.029,254.1
2022-01-23T08:46:03,42.805,6.029,-0.044,0.0,-0.02,108.0,107.0,103.0,13.4,1505.2,329.1,-0.8,1.8,2470.992,13.28,0.044,270.0
2022-01-23T08:49:03,42.805,6.029,-0.051,-0.01,-0.008,107.0,106.0,104.0,13.3,1505.2,328.6,-0.8,1.8,2471.013,13.28,0.051,258.9
2022-01-23T08:52:02,42.805,6.029,-0.029,0.001,0.004,106.0,106.0,104.0,13.4,1505.2,324.7,-0.8,1.8,2471.063,13.28,0.029,272.0
2022-01-23T08:55:03,42.805,6.029,-0.053,-0.009,-0.015,107.0,106.0,104.0,13.4,1505.2,329.7,-0.8,1.8,2471.062,13.28,0.053,260.4
2022-01-23T08:58:03,42.805,6.029,-0.04,-0.017,-0.027,108.0,106.0,105.0,13.4,1505.2,324.9,-0.8,1.8,2471.004,13.28,0.043,247.0
2022-01-23T09:04:02,42.805,6.029,-0.013,0.006,0.003,107.0,106.0,104.0,13.3,1505.2,329.5,-0.8,1.8,2471.099,13.28,0.014,294.8
2022-01-23T09:07:02,42.805,6.029,-0.046,-0.002,-0.018,107.0,107.0,104.0,13.3,1505.2,329.9,-0.8,1.8,2471.081,13.28,0.046,267.5
2022-01-23T09:10:03,42.805,6.029,-0.051,-0.022,-0.002,107.0,106.0,104.0,13.3,1505.2,324.3,-0.8,1.8,2471.047,13.28,0.055,246.7
2022-01-23T09:13:03,42.805,6.029,-0.035,-0.001,0.001,107.0,105.0,104.0,13.4,1505.2,325.4,-0.7,1.8,2471.045,13.28,0.035,268.4
2022-01-23T09:16:03,42.805,6.029,-0.064,-0.004,0.007,107.0,106.0,104.0,13.4,1505.2,324.0,-0.8,1.8,2471.025,13.28,0.064,266.4
2022-01-23T09:19:03,42.805,6.029,-0.023,-0.024,-0.01,108.0,106.0,104.0,13.3,1505.2,325.2,-0.7,1.8,2471.011,13.28,0.033,223.8
2022-01-23T09:22:02,42.805,6.029,-0.01,-0.006,0.025,108.0,106.0,104.0,13.3,1505.2,325.9,-0.7,1.8,2471.03,13.28,0.011,239.0
2022-01-23T09:25:03,42.805,6.029,-0.045,0.016,-0.025,108.0,106.0,104.0,13.3,1505.2,327.4,-0.8,1.8,2471.011,13.28,0.047,289.6
2022-01-23T09:28:03,42.805,6.029,-0.031,-0.001,0.001,107.0,107.0,105.0,13.4,1505.2,328.8,-0.8,1.8,2471.056,13.29,0.031,268.2
2022-01-23T09:31:03,42.805,6.029,-0.032,-0.012,-0.025,107.0,107.0,106.0,13.3,1505.2,323.6,-0.8,1.8,2470.999,13.28,0.034,249.4
2022-01-23T09:34:03,42.805,6.029,-0.047,-0.028,-0.013,108.0,106.0,104.0,13.3,1505.2,323.8,-0.8,1.8,2471.054,13.28,0.054,239.2
2022-01-23T09:37:02,42.805,6.029,-0.042,-0.016,-0.027,108.0,106.0,104.0,13.3,1505.2,328.2,-0.8,1.8,2471.078,13.28,0.044,249.1
2022-01-23T09:40:03,42.805,6.029,-0.03,-0.004,-0.029,106.0,105.0,104.0,13.4,1505.2,328.4,-0.8,1.8,2471.119,13.28,0.03,262.4
2022-01-23T09:43:03,42.805,6.029,-0.033,-0.012,-0.026,108.0,107.0,104.0,13.4,1505.2,325.5,-0.7,1.8,2471.055,13.28,0.035,250.0
2022-01-23T09:46:03,42.805,6.029,-0.038,0.0,-0.019,108.0,107.0,104.0,13.4,1505.2,326.1,-0.7,1.8,2471.047,13.28,0.038,270.0